[[{"header":{"parameterUnit":"m.s-1","parameterCategory":2,"la1":30.2991,"la2":30.254,"lo1":-89.0895,"lo2":-89.0444,"dx":0.0017,"dy":0.0017,"nx":28,"ny":28,"refTime":"2023-01-02T15:00:00:Z","depth":"0","parameterNumber":2,"parameterNumberName":"U-component_of_CURRENTS"},"data":[0,0,0,0,0,0,0,0,0,0,0,0,0,0,0,0,0,0,0,0,0,0,0,0,0,0,0,0,0,0,0,0,0,0,0,0,0,0,0,0,0,0,0,0,0,0,0,0,0,0,0,0,0,0,0,0,0,0,0.2434,0.2434,0,0.2462,0.2462,0.2463,0.247,0.247,0.247,0.247,0.2505,0.2506,0.2507,0,0,0,0,0,0,0,0,0,0,0,0,0,0.2411,0.2412,0.2434,0.2434,0.2435,0.2462,0.2462,0.2463,0.247,0.247,0.247,0.247,0.2505,0.2506,0.2507,0,0,0,0,0,0,0,0,0,0,0,0,0,0.2428,0.2412,0.2434,0.2442,0.2443,0.2462,0.2462,0.2463,0.247,0.247,0.247,0.2469,0.2504,0.2506,0.2508,0.2522,0,0,0.2513,0.2513,0,0,0,0,0,0,0,0,0.2427,0.2429,0.244,0.2441,0.2442,0.2462,0.2467,0.2483,0.247,0.246,0.247,0.2469,0.2492,0.2494,0.25,0.2524,0.2526,0.2513,0.2514,0.2514,0.2515,0,0,0,0,0,0,0,0.2426,0.2428,0.2445,0.2441,0.2442,0.2452,0.2454,0.247,0.2477,0.2461,0.2461,0.2465,0.2492,0.2498,0.2501,0.2526,0.2513,0.2514,0.2515,0.2516,0.2587,0.2588,0,0,0,0,0,0,0.2422,0.2427,0.2444,0.2446,0.2434,0.2453,0.2455,0.2456,0.2476,0.2479,0.2465,0.2465,0.2496,0.2499,0.2502,0.2542,0.2514,0.2516,0.2517,0.2586,0.2587,0.2588,0,0,0,0,0,0,0.2421,0.2423,0.2443,0.2437,0.244,0.2453,0.2455,0.2457,0.2464,0.248,0.2482,0.247,0.2496,0.25,0.2521,0.2543,0.2517,0.2518,0.2585,0.2587,0.2588,0.2608,0,0,0,0,0,0,0.242,0.2423,0.2423,0.2437,0.2441,0.2462,0.2455,0.2458,0.2467,0.2467,0.2485,0.2488,0.2496,0.2519,0.2523,0.2544,0.2519,0.2584,0.2586,0.2587,0.2606,0.261,0.2613,0,0,0,0,0,0.2419,0.2422,0.2423,0.2425,0.244,0.2463,0.2466,0.2474,0.2467,0.2478,0.2486,0.2487,0.2533,0.2521,0.2525,0.2548,0.2583,0.2585,0.2587,0.2605,0.2609,0.2613,0,0,0,0,0,0,0.2413,0.2423,0.2425,0.243,0.2448,0.2464,0.2472,0.2475,0.249,0.2489,0.2496,0.2501,0.2533,0.2535,0.2521,0.2574,0.256,0.2563,0.2571,0.2576,0.2579,0.2568,0.2521,0,0,0,0,0,0.2411,0.2416,0.2431,0.2437,0.2446,0.2458,0.2467,0.2475,0.2488,0.2494,0.2503,0.2519,0.2546,0.2554,0.2577,0.2599,0.2601,0.2617,0.2621,0.2624,0.2618,0.2649,0.2654,0.2595,0.2595,0.2595,0,0,0.2408,0.2417,0.2418,0.2436,0.2448,0.2463,0.2463,0.2481,0.2494,0.2496,0.2514,0.2534,0.2556,0.2588,0.2601,0.259,0.2642,0.2626,0.2629,0.2621,0.2652,0.2657,0.2662,0.2596,0.2596,0.2596,0,0,0.2407,0.2415,0.2418,0.2436,0.2457,0.247,0.2475,0.2493,0.2504,0.2524,0.2537,0.2563,0.259,0.2614,0.2628,0.2662,0.2664,0.2674,0.2677,0.2707,0.2712,0.2716,0.2723,0.2727,0.2669,0.2669,0.2669,0,0.2402,0.2408,0.2425,0.2437,0.2449,0.2472,0.2482,0.2502,0.2524,0.2537,0.2531,0.2587,0.2603,0.265,0.2661,0.267,0.2679,0.2659,0.2711,0.2715,0.272,0.2725,0.273,0.2671,0.2671,0.267,0.267,0,0.2404,0.2412,0.2419,0.2439,0.2458,0.2474,0.2503,0.2523,0.2534,0.2552,0.2596,0.262,0.2651,0.2667,0.2671,0.2717,0.2711,0.2717,0.2698,0.2727,0.273,0.2735,0.2672,0.2672,0.2672,0.2671,0,0,0.2382,0.2412,0.2414,0.2423,0.2459,0.2475,0.2506,0.2541,0.2565,0.2591,0.2618,0.2665,0.2679,0.2696,0.2716,0.2734,0.2769,0.2733,0.2734,0.2734,0.2821,0.2772,0.2773,0.2788,0.2789,0.279,0.281,0,0.2376,0.2391,0.241,0.2431,0.2441,0.2477,0.2506,0.2545,0.2578,0.2615,0.2651,0.269,0.2693,0.2712,0.2735,0.2772,0.2783,0.2761,0.2797,0.2798,0.2748,0.2777,0.2669,0.2675,0.2815,0.2815,0.2816,0,0.2364,0.2379,0.239,0.2427,0.2436,0.2456,0.2509,0.254,0.2605,0.263,0.2675,0.2707,0.2755,0.2744,0.2807,0.2795,0.2803,0.2817,0.2818,0.2767,0.2758,0.2671,0.2678,0.263,0.2823,0.2823,0.2822,0,0.2332,0.2363,0.237,0.2382,0.2429,0.2447,0.2479,0.2544,0.2579,0.2644,0.2679,0.2735,0.2778,0.28,0.2838,0.2826,0.2894,0.2883,0.2841,0.2837,0.2747,0.2733,0.2705,0.2909,0.2909,0.2909,0.2909,0,0.2312,0.2318,0.2357,0.2362,0.2385,0.2429,0.2466,0.251,0.258,0.2628,0.2687,0.2736,0.2797,0.2848,0.2852,0.2868,0.291,0.2841,0.2844,0.275,0.2737,0.2692,0.2674,0.291,0.2909,0.2909,0.2909,0,0.2271,0.2293,0.2305,0.2352,0.2367,0.2386,0.2452,0.2485,0.2561,0.2627,0.2649,0.2756,0.2821,0.2869,0.2919,0.2895,0.2824,0.2893,0.2768,0.2754,0.2639,0.2627,0.2491,0.2424,0.2834,0.2833,0.2832,0,0.2247,0.2247,0.2286,0.2294,0.2314,0.235,0.2376,0.2458,0.2502,0.2633,0.2663,0.2764,0.2823,0.2884,0.2862,0.2856,0.2792,0.2736,0.2685,0.2616,0.2605,0.2506,0.2453,0.2573,0.257,0.2568,0.2566,0,0.2205,0.2218,0.223,0.225,0.2272,0.2299,0.2351,0.2382,0.2485,0.255,0.2646,0.2707,0.2788,0.2751,0.2756,0.273,0.2603,0.2685,0.2654,0.2427,0.2276,0.2219,0.2569,0.2545,0.2547,0.2548,0.2549,0.255,0.2169,0.2167,0.2185,0.2193,0.2216,0.2237,0.2236,0.2304,0.2359,0.243,0.2551,0.2588,0.263,0.2625,0.2586,0.246,0.2461,0.2374,0.2373,0.2286,0.2183,0.2475,0.2431,0.2433,0.2434,0.2435,0.2436,0,0.2114,0.2116,0.2127,0.213,0.212,0.2164,0.2202,0.2187,0.2209,0.2299,0.2359,0.238,0.2344,0.2347,0.2274,0.2177,0.2065,0.2113,0.196,0.1933,0.2232,0.2185,0.2037,0.2037,0.2038,0.2038,0.2038,0.2038,0.2086,0.2065,0.2065,0.2025,0.2026,0.1994,0.1993,0.1992,0.2028,0.2023,0.2027,0.2077,0.2176,0.2149,0.2041,0.1978,0.1848,0.1736,0.176,0.2001,0.2025,0.2048,0.2001,0.1817,0.1816,0.1367,0.1364,0.1361]},{"header":{"parameterUnit":"m.s-1","parameterCategory":2,"la1":30.2991,"la2":30.254,"lo1":-89.0895,"lo2":-89.0444,"dx":0.0017,"dy":0.0017,"nx":28,"ny":28,"refTime":"2023-01-02T15:00:00:Z","depth":"0","parameterNumber":3,"parameterNumberName":"V-component_of_CURRENTS"},"data":[0,0,0,0,0,0,0,0,0,0,0,0,0,0,0,0,0,0,0,0,0,0,0,0,0,0,0,0,0,0,0,0,0,0,0,0,0,0,0,0,0,0,0,0,0,0,0,0,0,0,0,0,0,0,0,0,0,0,0.0044,0.0044,0,0.003,0.003,0.003,0.0013,0.0013,0.0013,0.0012,-0.0033,-0.0034,-0.0035,0,0,0,0,0,0,0,0,0,0,0,0,0,0.0025,0.0026,0.0044,0.0044,0.0043,0.003,0.003,0.003,0.0013,0.0013,0.0013,0.0012,-0.0033,-0.0034,-0.0035,0,0,0,0,0,0,0,0,0,0,0,0,0,0.0025,0.0026,0.0044,0.0033,0.0032,0.003,0.003,0.0029,0.0013,0.0013,0.0012,0.0012,-0.0033,-0.0034,-0.0035,-0.0036,0,0,-0.004,-0.0041,0,0,0,0,0,0,0,0,0.0025,0.0025,0.0035,0.0034,0.0033,0.0023,0.0006,0.0006,0.0013,0.0021,0.0012,0.0012,-0.0017,-0.002,-0.0021,-0.0038,-0.004,-0.004,-0.0041,-0.0042,-0.0042,0,0,0,0,0,0,0,0.0025,0.0026,0.0038,0.0035,0.0034,0.0019,0.0019,0.0006,0.0004,0.002,0.0019,0.0017,-0.0018,-0.002,-0.0022,-0.0041,-0.004,-0.0041,-0.0042,-0.0043,-0.0056,-0.0055,0,0,0,0,0,0,0.0029,0.0026,0.0039,0.0038,0.0028,0.002,0.0019,0.0027,0.0004,0.0001,0.0017,0.0016,-0.0017,-0.0021,-0.0024,-0.0016,-0.0042,-0.0043,-0.0044,-0.0056,-0.0056,-0.0055,0,0,0,0,0,0,0.0028,0.003,0.0039,0.0031,0.0031,0.0021,0.0029,0.0026,0.0026,0.0003,-0.0001,0.0019,-0.0017,-0.0022,-0.003,-0.0018,-0.0044,-0.0045,-0.0057,-0.0056,-0.0055,-0.0006,0,0,0,0,0,0,0.0028,0.003,0.0035,0.0032,0.0032,0.0046,0.0029,0.0026,0.0025,0.0024,0.0003,-0.0002,-0.0018,-0.0028,-0.0031,-0.0021,-0.0046,-0.0058,-0.0057,-0.0056,-0.0009,-0.0004,0.0,0,0,0,0,0,0.0028,0.0039,0.0036,0.0037,0.004,0.0046,0.0045,0.0036,0.0026,0.0033,0.0016,-0.0001,-0.0024,-0.0028,-0.0033,-0.0022,-0.0058,-0.0057,-0.0056,-0.001,-0.0005,-0.0,0,0,0,0,0,0,0.0032,0.0038,0.0035,0.0047,0.0049,0.0044,0.0047,0.004,0.0033,0.0029,0.0005,-0.0001,-0.0003,-0.0019,-0.0023,-0.0023,-0.0044,-0.0043,-0.0008,-0.0003,0.0002,0.0014,-0.0047,0,0,0,0,0,0.0036,0.0047,0.0048,0.0058,0.0061,0.0055,0.0054,0.005,0.0044,0.004,0.0024,0.0008,-0.0001,-0.0007,-0.0019,-0.0019,-0.0036,-0.0016,-0.0011,-0.0007,0.0,-0.0014,-0.001,-0.0051,-0.0051,-0.0051,0,0,0.0039,0.0045,0.005,0.006,0.006,0.0073,0.0054,0.0061,0.0072,0.0036,0.0041,0.0022,0.0002,0.0003,0.0001,-0.0009,-0.0005,-0.0006,-0.0003,0.0003,-0.0012,-0.0008,-0.0004,-0.005,-0.0051,-0.0051,0,0,0.0057,0.0059,0.0076,0.0082,0.0088,0.0087,0.0091,0.0088,0.0089,0.0091,0.0069,0.0059,0.0043,0.0034,0.0026,0.0047,0.0019,0.0041,0.0073,0.006,0.0063,0.0066,0.005,0.0051,0.0043,0.0043,0.0043,0,0.006,0.0085,0.0081,0.01,0.0109,0.0096,0.0118,0.0118,0.0112,0.0117,0.01,0.0081,0.006,0.0065,0.0071,0.0058,0.0043,0.0056,0.0066,0.0069,0.0071,0.0053,0.0054,0.0046,0.0046,0.0045,0.0045,0,0.0094,0.0111,0.0123,0.0144,0.0153,0.017,0.0171,0.0177,0.017,0.0167,0.0168,0.0139,0.0128,0.0119,0.0101,0.0108,0.009,0.0073,0.0054,0.0078,0.0058,0.0057,0.0049,0.0049,0.0048,0.0047,0,0,0.011,0.0141,0.0146,0.0167,0.018,0.0195,0.0213,0.023,0.0249,0.023,0.0248,0.0224,0.0201,0.0192,0.0164,0.0151,0.0148,0.0121,0.0119,0.0108,0.0116,0.0103,0.0101,0.0131,0.0131,0.0132,0.0097,0,0.014,0.0185,0.0192,0.0235,0.026,0.0259,0.0282,0.0292,0.0292,0.0304,0.0274,0.0274,0.0232,0.0225,0.0206,0.0166,0.0149,0.0158,0.0093,0.0091,0.0079,0.0101,0.0127,0.0098,0.0096,0.0096,0.0096,0,0.0175,0.0202,0.0251,0.0292,0.0304,0.0327,0.0364,0.0382,0.0389,0.0388,0.0375,0.0345,0.0325,0.0282,0.0225,0.0233,0.018,0.0143,0.014,0.0112,0.0078,0.0074,0.0097,0.0025,0.0095,0.0095,0.0095,0,0.02,0.0246,0.0289,0.0303,0.0344,0.0369,0.039,0.0409,0.0438,0.0438,0.0455,0.0413,0.0402,0.0333,0.025,0.0237,0.0185,0.0156,0.0094,0.0091,0.0093,0.0091,0.0042,0.0114,0.0114,0.0114,0.0114,0,0.0236,0.027,0.0307,0.0333,0.0392,0.0404,0.0464,0.0477,0.0503,0.0553,0.0499,0.0525,0.0415,0.0368,0.0278,0.0192,0.0204,0.0107,0.0086,0.0111,0.0111,0.003,-0.0031,0.0113,0.0113,0.0113,0.0113,0,0.0262,0.0284,0.0339,0.0388,0.0409,0.0452,0.0517,0.0559,0.0575,0.0637,0.0639,0.0612,0.0557,0.044,0.0333,0.024,0.0101,0.0109,0.0143,0.0127,-0.0004,-0.0063,-0.0148,-0.0183,0.0037,0.0036,0.0036,0,0.0281,0.0312,0.038,0.0419,0.0447,0.051,0.0558,0.0592,0.0644,0.0704,0.0742,0.0702,0.0706,0.0536,0.0358,0.0196,0.01,0.0095,0.0073,0.0001,-0.0081,-0.0119,-0.0144,0.0092,0.0092,0.0092,0.0092,0,0.0317,0.0341,0.0386,0.0467,0.0527,0.0599,0.0672,0.0726,0.0783,0.085,0.0928,0.0936,0.0777,0.0637,0.0393,0.0267,0.0045,0.0091,0.0012,-0.0042,-0.0082,-0.0128,0.0096,0.0093,0.0093,0.0093,0.0093,0.0093,0.0343,0.0381,0.0443,0.0522,0.0593,0.0688,0.0762,0.0853,0.0963,0.1084,0.1072,0.1126,0.0896,0.058,0.0387,0.0065,0.0049,-0.002,-0.0086,-0.0117,-0.0148,0.0076,0.0049,0.0049,0.0049,0.0049,0.0048,0,0.0377,0.0423,0.0495,0.0592,0.0676,0.071,0.0839,0.0931,0.1086,0.12,0.1281,0.1218,0.0927,0.0607,0.0165,-0.0058,-0.014,-0.018,-0.0221,-0.024,-0.0036,-0.0029,-0.0068,-0.0068,-0.0068,-0.0068,-0.0067,-0.0067,0.0396,0.0466,0.0505,0.0646,0.072,0.0845,0.0929,0.108,0.1198,0.1371,0.143,0.1443,0.1221,0.0417,-0.0095,-0.0226,-0.0372,-0.0406,-0.0487,-0.0342,-0.0331,-0.0321,-0.0327,-0.0427,-0.0428,-0.0635,-0.0637,-0.0639]}],[{"header":{"parameterUnit":"m.s-1","parameterCategory":2,"la1":30.2991,"la2":30.254,"lo1":-89.0895,"lo2":-89.0444,"dx":0.0017,"dy":0.0017,"nx":28,"ny":28,"refTime":"2023-01-02T15:00:00:Z","depth":"2","parameterNumber":2,"parameterNumberName":"U-component_of_CURRENTS"},"data":[0,0,0,0,0,0,0,0,0,0,0,0,0,0,0,0,0,0,0,0,0,0,0,0,0,0,0,0,0,0,0,0,0,0,0,0,0,0,0,0,0,0,0,0,0,0,0,0,0,0,0,0,0,0,0,0,0,0,0.1897,0.1897,0,0.1908,0.1908,0.1908,0.1922,0.1922,0.1923,0.1923,0.1951,0.1951,0.1952,0,0,0,0,0,0,0,0,0,0,0,0,0,0.1891,0.189,0.1897,0.1897,0.1897,0.1908,0.1908,0.1908,0.1922,0.1922,0.1923,0.1923,0.1951,0.1951,0.1952,0,0,0,0,0,0,0,0,0,0,0,0,0,0.1895,0.189,0.1897,0.1907,0.1908,0.1908,0.1908,0.1908,0.1922,0.1922,0.1923,0.1923,0.195,0.1951,0.1952,0.1945,0,0,0.1954,0.1954,0,0,0,0,0,0,0,0,0.1895,0.1895,0.1905,0.1906,0.1907,0.1915,0.1916,0.1922,0.1922,0.1915,0.1923,0.1924,0.1941,0.1942,0.1941,0.1946,0.1948,0.1954,0.1954,0.1954,0.1954,0,0,0,0,0,0,0,0.1895,0.1895,0.19,0.1905,0.1907,0.1911,0.1912,0.1917,0.1924,0.1916,0.1917,0.192,0.1941,0.194,0.1942,0.1948,0.1954,0.1954,0.1955,0.1955,0.2008,0.2009,0,0,0,0,0,0,0.1895,0.1895,0.19,0.19,0.1904,0.1911,0.1912,0.1911,0.1924,0.1927,0.192,0.1921,0.1939,0.1941,0.1943,0.1986,0.1954,0.1955,0.1955,0.2007,0.2008,0.2009,0,0,0,0,0,0,0.1895,0.1895,0.1899,0.1899,0.19,0.1911,0.1909,0.1911,0.1924,0.1927,0.193,0.1933,0.194,0.1942,0.1964,0.1985,0.1955,0.1956,0.2006,0.2008,0.2009,0.2039,0,0,0,0,0,0,0.1894,0.1895,0.1899,0.1899,0.19,0.1915,0.1909,0.1911,0.1925,0.1927,0.1939,0.1941,0.194,0.1964,0.1965,0.1985,0.1956,0.2005,0.2007,0.2008,0.2037,0.2041,0.2045,0,0,0,0,0,0.1894,0.1897,0.1899,0.19,0.1904,0.1916,0.1917,0.1925,0.1925,0.1938,0.1946,0.1942,0.1977,0.1965,0.1966,0.1987,0.2004,0.2006,0.2008,0.2035,0.2041,0.2045,0,0,0,0,0,0,0.1897,0.1899,0.1901,0.1904,0.1917,0.1919,0.1929,0.1933,0.1947,0.1952,0.1951,0.1954,0.1988,0.1981,0.1967,0.201,0.1991,0.1994,0.2011,0.2016,0.2021,0.2023,0.1957,0,0,0,0,0,0.1898,0.1901,0.1908,0.1914,0.192,0.1926,0.1933,0.1941,0.1951,0.1958,0.1964,0.1975,0.1995,0.2001,0.2017,0.203,0.2033,0.2047,0.2051,0.2055,0.2059,0.2083,0.209,0.2017,0.2017,0.2017,0,0,0.1899,0.1903,0.1904,0.1915,0.1923,0.1934,0.1932,0.195,0.1962,0.1958,0.1979,0.1996,0.2006,0.2031,0.2044,0.2028,0.2077,0.2058,0.2061,0.2063,0.2086,0.2093,0.21,0.2019,0.2019,0.2018,0,0,0.1901,0.1909,0.1912,0.1925,0.1943,0.1949,0.1958,0.197,0.1982,0.2003,0.2011,0.2039,0.2054,0.2069,0.2077,0.2113,0.2108,0.212,0.2133,0.2157,0.2163,0.2168,0.218,0.2186,0.2112,0.2112,0.2112,0,0.1904,0.1906,0.1917,0.1928,0.1938,0.1957,0.1967,0.1983,0.2002,0.2016,0.2017,0.2063,0.2074,0.2107,0.2123,0.2124,0.2131,0.2111,0.2162,0.2168,0.2173,0.2183,0.219,0.2114,0.2113,0.2113,0.2113,0,0.1906,0.1914,0.1921,0.1936,0.1952,0.1968,0.199,0.2013,0.2029,0.2044,0.2089,0.2107,0.2133,0.2144,0.2144,0.2187,0.2179,0.2173,0.2147,0.2182,0.2191,0.2197,0.2116,0.2115,0.2115,0.2114,0,0,0.1893,0.1915,0.1918,0.1927,0.1958,0.1971,0.2002,0.2033,0.2059,0.2088,0.2118,0.216,0.2176,0.2187,0.2197,0.2213,0.2257,0.2207,0.2207,0.2214,0.2304,0.225,0.2251,0.2259,0.226,0.2261,0.2295,0,0.189,0.1903,0.1918,0.1939,0.1947,0.198,0.2007,0.2044,0.2078,0.2115,0.2149,0.2187,0.219,0.221,0.2232,0.226,0.2275,0.2248,0.2272,0.2273,0.2218,0.2257,0.2084,0.2096,0.2301,0.2302,0.2302,0,0.1883,0.1894,0.1907,0.1938,0.1947,0.1968,0.2019,0.2048,0.211,0.2138,0.2184,0.2213,0.2261,0.2251,0.231,0.2293,0.2303,0.2313,0.2314,0.2257,0.2231,0.2095,0.2099,0.2312,0.2311,0.2311,0.231,0,0.1859,0.1885,0.1894,0.1905,0.1946,0.1967,0.1998,0.2059,0.2092,0.216,0.2197,0.2249,0.2293,0.2313,0.2348,0.2333,0.24,0.238,0.2336,0.2332,0.2186,0.2167,0.2412,0.2412,0.2412,0.2412,0.2412,0,0.1842,0.1851,0.1887,0.1893,0.1918,0.1958,0.1998,0.2041,0.2108,0.2152,0.2213,0.2255,0.2314,0.2359,0.2363,0.2376,0.2417,0.2348,0.2342,0.2191,0.2173,0.2359,0.2353,0.2413,0.2413,0.2413,0.2412,0,0.1809,0.183,0.1844,0.1888,0.1905,0.1927,0.1992,0.2022,0.21,0.216,0.2186,0.2282,0.2342,0.2384,0.2429,0.2404,0.241,0.2399,0.2214,0.2186,0.2318,0.2313,0.235,0.2348,0.2347,0.2346,0.2345,0,0.1789,0.1792,0.1832,0.1842,0.1863,0.1902,0.1927,0.2005,0.2042,0.2166,0.219,0.2286,0.2329,0.2384,0.236,0.2355,0.24,0.2178,0.2117,0.2324,0.2315,0.2312,0.2308,0.1934,0.193,0.1927,0.1924,0,0.1753,0.177,0.1781,0.1803,0.1827,0.1849,0.1898,0.1923,0.2017,0.2074,0.2149,0.2199,0.2274,0.2199,0.2209,0.2175,0.2163,0.2108,0.2381,0.1979,0.1936,0.1926,0.1935,0.1894,0.1897,0.1899,0.1901,0.1902,0.1725,0.1723,0.1741,0.1751,0.1776,0.1784,0.1776,0.183,0.1869,0.1929,0.2034,0.2048,0.2075,0.2004,0.1933,0.1875,0.2021,0.1914,0.1923,0.1936,0.1884,0.1841,0.1771,0.1773,0.1775,0.1777,0.1778,0,0.1676,0.1678,0.1686,0.1687,0.1673,0.1719,0.1738,0.1706,0.1706,0.179,0.1834,0.1703,0.1668,0.1692,0.1564,0.155,0.1519,0.1474,0.1421,0.1454,0.1483,0.1405,0.1166,0.1164,0.1162,0.116,0,0,0.1652,0.163,0.1624,0.1577,0.158,0.1539,0.1529,0.1499,0.152,0.1495,0.1494,0.1623,0.167,0.141,0.1365,0.1247,0.1338,0.1193,0.1691,0.1665,0.169,0.175,0.167,0,0,0,0,0]},{"header":{"parameterUnit":"m.s-1","parameterCategory":2,"la1":30.2991,"la2":30.254,"lo1":-89.0895,"lo2":-89.0444,"dx":0.0017,"dy":0.0017,"nx":28,"ny":28,"refTime":"2023-01-02T15:00:00:Z","depth":"2","parameterNumber":3,"parameterNumberName":"V-component_of_CURRENTS"},"data":[0,0,0,0,0,0,0,0,0,0,0,0,0,0,0,0,0,0,0,0,0,0,0,0,0,0,0,0,0,0,0,0,0,0,0,0,0,0,0,0,0,0,0,0,0,0,0,0,0,0,0,0,0,0,0,0,0,0,0.0155,0.0155,0,0.0144,0.0144,0.0144,0.0129,0.0128,0.0128,0.0128,0.0089,0.0088,0.0087,0,0,0,0,0,0,0,0,0,0,0,0,0,0.0136,0.0136,0.0155,0.0155,0.0155,0.0144,0.0144,0.0144,0.0129,0.0128,0.0128,0.0128,0.0089,0.0088,0.0087,0,0,0,0,0,0,0,0,0,0,0,0,0,0.0137,0.0136,0.0155,0.0146,0.0145,0.0144,0.0144,0.0144,0.0129,0.0128,0.0128,0.0128,0.0089,0.0088,0.0087,0.0089,0,0,0.0083,0.0083,0,0,0,0,0,0,0,0,0.0137,0.0138,0.0147,0.0146,0.0145,0.0137,0.0122,0.0124,0.0129,0.0135,0.0128,0.0127,0.0102,0.01,0.01,0.0087,0.0085,0.0083,0.0083,0.0082,0.0082,0,0,0,0,0,0,0,0.0137,0.0138,0.0151,0.0147,0.0146,0.0132,0.0132,0.0123,0.0121,0.0135,0.0134,0.0132,0.0101,0.0101,0.0099,0.0085,0.0083,0.0082,0.0082,0.0081,0.0069,0.007,0,0,0,0,0,0,0.0139,0.0138,0.0152,0.0151,0.0139,0.0133,0.0133,0.014,0.0122,0.0119,0.0132,0.0131,0.0103,0.01,0.0097,0.0103,0.0082,0.0081,0.008,0.0069,0.007,0.007,0,0,0,0,0,0,0.0139,0.0141,0.0152,0.0143,0.0143,0.0134,0.0142,0.014,0.014,0.012,0.0116,0.0133,0.0103,0.0099,0.0092,0.0101,0.0081,0.0079,0.0069,0.0069,0.007,0.0112,0,0,0,0,0,0,0.0139,0.0141,0.0146,0.0144,0.0144,0.0158,0.0143,0.0141,0.0139,0.0137,0.012,0.0115,0.0102,0.0093,0.009,0.0099,0.0079,0.0068,0.0069,0.007,0.011,0.0114,0.0117,0,0,0,0,0,0.0138,0.015,0.0147,0.0148,0.0152,0.0158,0.0158,0.0149,0.0139,0.0145,0.013,0.0116,0.0096,0.0093,0.0089,0.0098,0.0068,0.0069,0.0069,0.0109,0.0113,0.0117,0,0,0,0,0,0,0.0143,0.0149,0.0146,0.0158,0.016,0.0156,0.0159,0.0152,0.0145,0.0142,0.0121,0.0116,0.0113,0.01,0.0097,0.0097,0.0079,0.008,0.011,0.0115,0.0118,0.0129,0.0078,0,0,0,0,0,0.0146,0.0158,0.0159,0.0169,0.0171,0.0165,0.0165,0.0161,0.0155,0.0152,0.0137,0.0123,0.0115,0.011,0.0099,0.01,0.0083,0.0103,0.0106,0.0109,0.0116,0.0099,0.0101,0.0073,0.0073,0.0073,0,0,0.015,0.0155,0.0161,0.0171,0.0171,0.0182,0.0164,0.017,0.0179,0.0148,0.0152,0.0134,0.0117,0.0118,0.0116,0.0108,0.0108,0.0111,0.0113,0.0118,0.01,0.0103,0.0105,0.0073,0.0073,0.0073,0,0,0.0167,0.017,0.0186,0.0191,0.0196,0.0194,0.0197,0.0194,0.0194,0.0196,0.0175,0.0164,0.0151,0.0142,0.0136,0.0153,0.0127,0.0148,0.0176,0.016,0.0162,0.0164,0.0145,0.0145,0.0151,0.0151,0.0151,0,0.017,0.0194,0.0191,0.0208,0.0216,0.0202,0.0222,0.0222,0.0215,0.0218,0.0203,0.0183,0.0165,0.0169,0.0173,0.0162,0.0146,0.0162,0.0165,0.0166,0.0167,0.0148,0.0147,0.0153,0.0153,0.0153,0.0152,0,0.0202,0.0218,0.0229,0.0248,0.0256,0.0271,0.0271,0.0275,0.0268,0.0263,0.0261,0.0234,0.0223,0.0214,0.0199,0.0201,0.0185,0.017,0.0155,0.0173,0.0151,0.0149,0.0156,0.0155,0.0155,0.0154,0,0,0.0216,0.0246,0.025,0.027,0.0281,0.0295,0.031,0.0324,0.0339,0.0319,0.0333,0.0309,0.0286,0.0278,0.0253,0.0237,0.0227,0.021,0.0208,0.0195,0.0189,0.0174,0.0171,0.0212,0.0212,0.0212,0.017,0,0.0243,0.0285,0.0292,0.0333,0.0356,0.0354,0.0375,0.0382,0.0379,0.0386,0.0356,0.0353,0.0314,0.0307,0.0286,0.0245,0.0225,0.024,0.0172,0.017,0.0157,0.0169,0.0182,0.0145,0.0168,0.0168,0.0168,0,0.0275,0.0301,0.0346,0.0387,0.0398,0.0418,0.0451,0.0467,0.0468,0.0465,0.0448,0.0418,0.0394,0.0356,0.0293,0.0303,0.025,0.0213,0.021,0.0182,0.0153,0.0131,0.0141,0.0165,0.0165,0.0165,0.0166,0,0.0297,0.0341,0.0382,0.0395,0.0434,0.0457,0.0476,0.049,0.0516,0.0511,0.0524,0.0478,0.0466,0.0394,0.0309,0.0301,0.0236,0.0215,0.015,0.0148,0.0139,0.0136,0.0167,0.0167,0.0167,0.0167,0.0168,0,0.033,0.0362,0.0398,0.0422,0.0478,0.049,0.0545,0.0555,0.0576,0.0619,0.0565,0.0582,0.0475,0.0422,0.0332,0.024,0.0251,0.0159,0.0139,0.0153,0.0153,0.0153,0.0152,0.0166,0.0166,0.0167,0.0167,0,0.0353,0.0373,0.0425,0.0472,0.0493,0.0533,0.0596,0.0633,0.0645,0.0698,0.0699,0.0662,0.0598,0.0482,0.037,0.0281,0.0185,0.0146,0.0167,0.0151,0.0101,0.0102,0.0075,0.0074,0.0073,0.0072,0.0072,0,0.037,0.0398,0.0464,0.0501,0.0527,0.0587,0.0634,0.0666,0.0713,0.0756,0.0788,0.0737,0.0723,0.0545,0.0374,0.0212,0.0187,0.0108,0.0094,0.011,0.0092,0.0095,0.0098,0.0095,0.0095,0.0095,0.0095,0,0.0403,0.0424,0.0468,0.0543,0.0601,0.0673,0.0742,0.0792,0.0842,0.0891,0.0943,0.0931,0.0766,0.0607,0.0373,0.0257,0.0134,0.0099,0.0113,0.0119,0.0126,0.011,0.0113,0.0093,0.0093,0.0093,0.0093,0.0093,0.0426,0.0462,0.0519,0.0594,0.0661,0.0754,0.0825,0.0903,0.0995,0.1077,0.1055,0.1045,0.085,0.056,0.0349,0.012,0.0139,0.0056,0.0058,0.0059,0.0071,0.0077,0.0037,0.0037,0.0036,0.0036,0.0036,0,0.0456,0.0499,0.0566,0.0658,0.0737,0.0772,0.0896,0.0973,0.1094,0.1152,0.1194,0.1012,0.0824,0.0591,0.0262,0.007,0.0049,-0.0004,0.0019,0.0023,0.0026,0.0036,-0.0008,-0.0009,-0.0009,-0.001,0,0,0.0473,0.0537,0.0573,0.0705,0.0774,0.0894,0.0974,0.109,0.1165,0.1234,0.1224,0.118,0.0903,0.0655,0.0386,0.0193,0.015,0.0146,0.0204,0.0268,0.0273,0.0084,0.0108,0,0,0,0,0]}],[{"header":{"parameterUnit":"m.s-1","parameterCategory":2,"la1":30.2991,"la2":30.254,"lo1":-89.0895,"lo2":-89.0444,"dx":0.0017,"dy":0.0017,"nx":28,"ny":28,"refTime":"2023-01-02T15:00:00:Z","depth":"4","parameterNumber":2,"parameterNumberName":"U-component_of_CURRENTS"},"data":[0,0,0,0,0,0,0,0,0,0,0,0,0,0,0,0,0,0,0,0,0,0,0,0,0,0,0,0,0,0,0,0,0,0,0,0,0,0,0,0,0,0,0,0,0,0,0,0,0,0,0,0,0,0,0,0,0,0,0.1075,0.1076,0,0.1083,0.1082,0.1082,0.1108,0.1109,0.1109,0.111,0.1128,0.1128,0.1128,0,0,0,0,0,0,0,0,0,0,0,0,0,0.1066,0.1066,0.1075,0.1076,0.1076,0.1083,0.1082,0.1082,0.1108,0.1109,0.111,0.1111,0.1128,0.1128,0.1128,0,0,0,0,0,0,0,0,0,0,0,0,0,0.1069,0.1066,0.1075,0.1091,0.1092,0.1083,0.1082,0.1082,0.1108,0.1109,0.111,0.1111,0.1128,0.1128,0.1127,0.1103,0,0,0.1126,0.1126,0,0,0,0,0,0,0,0,0.1069,0.107,0.1088,0.109,0.1092,0.1097,0.1086,0.109,0.1107,0.11,0.111,0.1112,0.1119,0.112,0.1115,0.1103,0.1104,0.1126,0.1126,0.1126,0.1126,0,0,0,0,0,0,0,0.1069,0.1069,0.1076,0.1089,0.1091,0.1092,0.1093,0.1086,0.1102,0.1101,0.1103,0.1106,0.112,0.1116,0.1116,0.1104,0.1126,0.1126,0.1126,0.1126,0.1166,0.1167,0,0,0,0,0,0,0.1072,0.1069,0.1076,0.1077,0.1085,0.1091,0.1093,0.1093,0.1102,0.1105,0.1105,0.1108,0.1116,0.1116,0.1117,0.117,0.1126,0.1126,0.1125,0.1165,0.1166,0.1167,0,0,0,0,0,0,0.1071,0.1072,0.1076,0.1075,0.1076,0.109,0.109,0.1092,0.1119,0.1106,0.1109,0.1134,0.1117,0.1117,0.114,0.1168,0.1126,0.1125,0.1163,0.1165,0.1167,0.1225,0,0,0,0,0,0,0.1071,0.1072,0.1085,0.1075,0.1076,0.1094,0.1089,0.1092,0.1119,0.1122,0.113,0.1131,0.1118,0.114,0.1139,0.1167,0.1125,0.1161,0.1164,0.1166,0.1221,0.1228,0.1235,0,0,0,0,0,0.107,0.1079,0.1085,0.1087,0.1089,0.1095,0.1096,0.1108,0.1119,0.1136,0.1143,0.1133,0.1155,0.1141,0.1139,0.1168,0.116,0.1163,0.1166,0.1218,0.1227,0.1234,0,0,0,0,0,0,0.1082,0.1082,0.1089,0.1098,0.1109,0.1101,0.1118,0.1125,0.1142,0.1155,0.1143,0.1144,0.1176,0.1163,0.1148,0.1188,0.1158,0.1161,0.1199,0.1207,0.1213,0.1222,0.1125,0,0,0,0,0,0.109,0.1099,0.11,0.1113,0.112,0.1125,0.1135,0.1144,0.1151,0.1162,0.1166,0.1173,0.1179,0.1188,0.119,0.1206,0.1205,0.1226,0.1233,0.1238,0.1246,0.1268,0.1277,0.1177,0.1177,0.1177,0,0,0.1098,0.1101,0.1107,0.1117,0.1126,0.1137,0.1134,0.1158,0.1175,0.1159,0.1193,0.1197,0.119,0.1213,0.1226,0.121,0.1269,0.1242,0.1247,0.1251,0.1272,0.1282,0.129,0.1179,0.1178,0.1178,0,0,0.1109,0.1124,0.1133,0.1145,0.1166,0.1167,0.1182,0.1193,0.1212,0.1237,0.1234,0.126,0.1266,0.1269,0.1269,0.1312,0.1304,0.1319,0.1359,0.1381,0.1389,0.1397,0.1415,0.1424,0.1322,0.1322,0.1322,0,0.1124,0.113,0.1139,0.1152,0.1165,0.1185,0.1199,0.1216,0.1237,0.1255,0.1261,0.1291,0.1291,0.1315,0.1337,0.1328,0.1339,0.1328,0.139,0.1397,0.1404,0.1421,0.1429,0.1325,0.1325,0.1324,0.1324,0,0.1131,0.1149,0.1159,0.1178,0.1195,0.1215,0.1235,0.1267,0.1293,0.1306,0.1352,0.1355,0.1376,0.1383,0.1375,0.1423,0.1416,0.1396,0.1369,0.1417,0.1432,0.144,0.133,0.1328,0.1327,0.1327,0,0,0.1126,0.1157,0.1164,0.1179,0.1213,0.1224,0.1265,0.1298,0.1331,0.1365,0.1403,0.1431,0.1449,0.1451,0.1451,0.1473,0.1534,0.1465,0.1464,0.1482,0.159,0.1481,0.1479,0.1529,0.1531,0.1532,0.1584,0,0.1133,0.1156,0.1172,0.1205,0.1218,0.1253,0.1285,0.1324,0.1362,0.1406,0.1434,0.147,0.1469,0.1492,0.1518,0.1531,0.1558,0.1522,0.1541,0.1542,0.1438,0.1485,0.1537,0.159,0.1592,0.1593,0.1594,0,0.1129,0.1147,0.1176,0.1217,0.1228,0.1257,0.1318,0.135,0.1415,0.1448,0.1498,0.1519,0.1573,0.1557,0.1617,0.1599,0.1608,0.161,0.1612,0.1494,0.1447,0.153,0.1608,0.1607,0.1606,0.1605,0.1604,0,0.1107,0.1149,0.1174,0.1188,0.1237,0.1271,0.1308,0.1372,0.1407,0.1486,0.1525,0.1579,0.1622,0.1645,0.167,0.1654,0.1721,0.1691,0.1599,0.1591,0.1648,0.1639,0.1729,0.1729,0.1729,0.1728,0.1728,0,0.109,0.1115,0.1173,0.1187,0.1229,0.1272,0.1326,0.1375,0.1445,0.1486,0.1554,0.1589,0.1651,0.1691,0.1695,0.1676,0.1746,0.1616,0.1599,0.1672,0.1665,0.1654,0.1645,0.173,0.173,0.173,0.1729,0,0.1054,0.1093,0.1126,0.1192,0.1218,0.1253,0.1332,0.1364,0.1449,0.1508,0.1539,0.1625,0.1677,0.1716,0.1757,0.1702,0.1693,0.1666,0.1757,0.1742,0.1543,0.1536,0.1564,0.156,0.1558,0.1555,0.1553,0,0.1032,0.1048,0.1124,0.1147,0.1182,0.1241,0.1273,0.1358,0.1389,0.151,0.1525,0.1617,0.166,0.1637,0.1683,0.168,0.1654,0.1636,0.1574,0.1546,0.1528,0.1525,0.1522,0.1549,0.1548,0.1547,0.1546,0,0.0991,0.1032,0.1059,0.1108,0.1151,0.1181,0.1241,0.1254,0.1348,0.1442,0.1474,0.1495,0.1549,0.1569,0.1584,0.1574,0.1637,0.1605,0.161,0.1552,0.1528,0.1512,0.1512,0.1536,0.1538,0.1539,0.1539,0,0.0966,0.0975,0.102,0.1051,0.1099,0.1104,0.1142,0.1175,0.1217,0.1346,0.1354,0.1449,0.1537,0.1515,0.1526,0.1513,0.1478,0.141,0.1424,0.1436,0.1366,0.1315,0.1251,0,0,0,0,0,0.0932,0.0929,0.0954,0.0974,0.1015,0.1042,0.1107,0.1145,0.124,0.1227,0.1286,0.1325,0.1346,0.1392,0.135,0.1462,0.1482,0.1405,0.1411,0.1481,0.1493,0.142,0,0,0,0,0,0,0.0907,0.093,0.0928,0.0902,0.0901,0.0931,0.0968,0.1031,0.1026,0.1135,0.1156,0.1236,0.128,0.1359,0.1325,0.1337,0.1308,0.1464,0.1459,0.1475,0.1485,0.1494,0.1424,0,0,0,0,0]},{"header":{"parameterUnit":"m.s-1","parameterCategory":2,"la1":30.2991,"la2":30.254,"lo1":-89.0895,"lo2":-89.0444,"dx":0.0017,"dy":0.0017,"nx":28,"ny":28,"refTime":"2023-01-02T15:00:00:Z","depth":"4","parameterNumber":3,"parameterNumberName":"V-component_of_CURRENTS"},"data":[0,0,0,0,0,0,0,0,0,0,0,0,0,0,0,0,0,0,0,0,0,0,0,0,0,0,0,0,0,0,0,0,0,0,0,0,0,0,0,0,0,0,0,0,0,0,0,0,0,0,0,0,0,0,0,0,0,0,0.017,0.0169,0,0.0166,0.0166,0.0166,0.0163,0.0163,0.0163,0.0163,0.0145,0.0145,0.0144,0,0,0,0,0,0,0,0,0,0,0,0,0,0.0153,0.0153,0.017,0.0169,0.0169,0.0166,0.0166,0.0166,0.0163,0.0163,0.0163,0.0163,0.0145,0.0145,0.0144,0,0,0,0,0,0,0,0,0,0,0,0,0,0.0156,0.0153,0.017,0.0167,0.0167,0.0166,0.0166,0.0166,0.0163,0.0163,0.0163,0.0162,0.0145,0.0145,0.0144,0.0143,0,0,0.0143,0.0142,0,0,0,0,0,0,0,0,0.0156,0.0157,0.0167,0.0167,0.0167,0.0164,0.0153,0.0157,0.0163,0.0165,0.0163,0.0162,0.015,0.0149,0.015,0.0142,0.0142,0.0143,0.0142,0.0142,0.0142,0,0,0,0,0,0,0,0.0156,0.0157,0.0169,0.0167,0.0167,0.0158,0.0159,0.0154,0.0158,0.0165,0.0164,0.0163,0.015,0.015,0.0149,0.0141,0.0143,0.0142,0.0142,0.0141,0.0135,0.0135,0,0,0,0,0,0,0.0156,0.0157,0.0169,0.0168,0.016,0.0159,0.016,0.0166,0.0159,0.0158,0.0163,0.0163,0.0151,0.015,0.0148,0.0156,0.0142,0.0141,0.0141,0.0135,0.0135,0.0135,0,0,0,0,0,0,0.0156,0.0158,0.0169,0.0161,0.0162,0.0159,0.0166,0.0166,0.0169,0.0158,0.0156,0.0167,0.0151,0.0149,0.0148,0.0155,0.0141,0.0141,0.0134,0.0135,0.0135,0.0166,0,0,0,0,0,0,0.0156,0.0158,0.0163,0.0162,0.0163,0.0174,0.0166,0.0166,0.0167,0.0167,0.016,0.0158,0.0151,0.0149,0.0147,0.0154,0.014,0.0134,0.0134,0.0135,0.0165,0.0167,0.0169,0,0,0,0,0,0.0155,0.0165,0.0164,0.0165,0.017,0.0175,0.0175,0.0172,0.0168,0.0174,0.0167,0.0159,0.015,0.0149,0.0147,0.0154,0.0134,0.0134,0.0135,0.0164,0.0167,0.0169,0,0,0,0,0,0,0.0161,0.0166,0.0164,0.0175,0.0177,0.0174,0.0179,0.0175,0.0174,0.0175,0.0162,0.016,0.0161,0.0152,0.0151,0.0152,0.014,0.014,0.0162,0.0165,0.0168,0.0176,0.014,0,0,0,0,0,0.0164,0.0175,0.0174,0.0184,0.0185,0.0182,0.0183,0.0182,0.018,0.018,0.0173,0.0165,0.0161,0.0159,0.0153,0.0155,0.014,0.0157,0.0159,0.0161,0.0166,0.0148,0.015,0.0136,0.0136,0.0136,0,0,0.0168,0.0173,0.0178,0.0185,0.0186,0.0195,0.0183,0.019,0.0198,0.0178,0.0186,0.0173,0.0162,0.0165,0.0164,0.0159,0.0157,0.0162,0.0164,0.0168,0.0149,0.015,0.0151,0.0136,0.0136,0.0136,0,0,0.0183,0.0187,0.02,0.0204,0.0208,0.0207,0.021,0.0209,0.0211,0.0216,0.0202,0.0194,0.0189,0.0181,0.0177,0.0188,0.0169,0.0185,0.0206,0.0189,0.019,0.019,0.0173,0.0172,0.0188,0.0188,0.0188,0,0.0187,0.0205,0.0203,0.0216,0.0224,0.0214,0.023,0.023,0.0229,0.0231,0.0223,0.021,0.0198,0.02,0.0203,0.0194,0.018,0.0198,0.0192,0.0192,0.0193,0.0174,0.0173,0.0189,0.0189,0.0189,0.0189,0,0.021,0.0225,0.0233,0.0248,0.0256,0.0268,0.0268,0.0273,0.0271,0.0267,0.0266,0.0248,0.0241,0.0233,0.0222,0.0219,0.0208,0.0196,0.0186,0.0196,0.0176,0.0174,0.0192,0.0191,0.019,0.019,0,0,0.0221,0.0246,0.0249,0.0266,0.0276,0.0287,0.03,0.0311,0.0323,0.031,0.0321,0.0303,0.0286,0.028,0.0261,0.0245,0.023,0.0224,0.0223,0.021,0.0191,0.0176,0.0172,0.0218,0.0217,0.0217,0.0176,0,0.0242,0.0274,0.0281,0.0315,0.0333,0.0334,0.0351,0.0357,0.0355,0.036,0.0336,0.0336,0.0307,0.0305,0.0283,0.0246,0.0226,0.0243,0.0181,0.018,0.0167,0.017,0.0217,0.0174,0.0174,0.0174,0.0173,0,0.0264,0.0284,0.0322,0.0357,0.0366,0.0385,0.0412,0.0426,0.0424,0.0423,0.041,0.0387,0.0365,0.0337,0.0278,0.029,0.0245,0.0211,0.0208,0.0183,0.0161,0.0162,0.0169,0.0169,0.017,0.017,0.017,0,0.0277,0.0315,0.0349,0.036,0.0394,0.0416,0.0435,0.0445,0.0466,0.0462,0.0472,0.0432,0.0423,0.0361,0.0285,0.0283,0.0214,0.0202,0.0144,0.0142,0.0155,0.0154,0.0157,0.0157,0.0157,0.0157,0.0157,0,0.0297,0.0326,0.0362,0.0381,0.043,0.0443,0.0491,0.05,0.0518,0.0546,0.0507,0.0514,0.0429,0.0376,0.03,0.0216,0.0223,0.0149,0.0132,0.0168,0.017,0.0153,0.0153,0.0155,0.0156,0.0156,0.0156,0,0.0309,0.033,0.0375,0.0419,0.044,0.0476,0.0535,0.0564,0.0576,0.0611,0.0613,0.0576,0.0512,0.0416,0.0315,0.0244,0.0158,0.0123,0.017,0.0155,0.0094,0.0096,0.0062,0.0061,0.006,0.006,0.0059,0,0.0318,0.0341,0.0404,0.0438,0.0464,0.052,0.056,0.0592,0.0624,0.065,0.0668,0.0618,0.058,0.0428,0.0321,0.0172,0.0145,0.0094,0.0092,0.0099,0.0085,0.0088,0.0091,0.0058,0.0058,0.0058,0.0058,0,0.0334,0.0358,0.0396,0.0464,0.0516,0.058,0.0638,0.0665,0.0704,0.0714,0.0712,0.0635,0.0562,0.0435,0.0315,0.0207,0.0124,0.0086,0.0087,0.0084,0.0093,0.0081,0.0085,0.0055,0.0055,0.0056,0.0056,0,0.0348,0.0376,0.0426,0.0489,0.0555,0.0622,0.0653,0.0695,0.0727,0.0749,0.0745,0.0665,0.0618,0.0454,0.0345,0.0234,0.0205,0.0159,0.0155,0.0157,0.019,0.0216,0.0202,0,0,0,0,0,0.0358,0.0392,0.0448,0.0518,0.0583,0.0627,0.0698,0.0723,0.0758,0.076,0.0755,0.0685,0.0532,0.0467,0.0355,0.0323,0.0179,0.0186,0.0123,0.0041,0.0044,0.0064,0,0,0,0,0,0,0.0366,0.0415,0.0446,0.053,0.0581,0.0659,0.0708,0.0734,0.0735,0.0749,0.0672,0.0641,0.0493,0.0595,0.0348,0.0316,0.0256,0.0119,0.0116,0.0039,0.0042,0.0044,0.0066,0,0,0,0,0]}]]